EIN352 EIDW-EDDM

Flight info

Callsign EIN352
Flight time 1h 52m
Altitude 37000
Route ENDEQ1E ENDEQ Q36 ALAVA Z195 MALUD UL975 WAL M16 DOLAS DCT NAVPI DCT DODEN/N0447F330 DCT TABUM DCT BOMBI T104 HAREM/N0415F270 T104 ROKIL ROKIL1B
Aircraft A21N/M-SDE2E3FGHIRWXY/LB1

Departure

Time 2026-05-04 10:00
Airport Dublin Airport (EIDW)

Arrival

Time 2026-05-04 11:52
Airport Munich Airport (EDDM)
Time Latitude Longitude Altitude Speed Heading
2026-05-04 09:22 53.42658 -6.24707 230 ft 0 kts 160°
2026-05-04 09:49 53.42734 -6.24682 233 ft 1 kts 243°
2026-05-04 09:52 53.42730 -6.24693 233 ft 3 kts 243°
2026-05-04 09:52 53.42718 -6.24738 233 ft 6 kts 241°
2026-05-04 09:52 53.42689 -6.24809 232 ft 9 kts 233°
2026-05-04 09:53 53.42675 -6.24921 230 ft 12 kts 300°
2026-05-04 09:53 53.42747 -6.25009 230 ft 11 kts 327°
2026-05-04 09:53 53.42791 -6.25088 230 ft 0 kts 301°
2026-05-04 09:53 53.42792 -6.25089 230 ft 1 kts 301°
2026-05-04 09:54 53.42798 -6.25125 230 ft 6 kts 279°
2026-05-04 09:54 53.42799 -6.25208 230 ft 8 kts 263°
2026-05-04 09:54 53.42763 -6.25306 230 ft 12 kts 228°
2026-05-04 09:54 53.42698 -6.25419 228 ft 15 kts 225°
2026-05-04 09:55 53.42622 -6.25547 229 ft 17 kts 225°
2026-05-04 09:55 53.42535 -6.25695 230 ft 19 kts 225°
2026-05-04 09:55 53.42438 -6.25860 230 ft 21 kts 225°
2026-05-04 09:55 53.42333 -6.26040 230 ft 22 kts 225°
2026-05-04 09:56 53.42269 -6.26283 230 ft 24 kts 267°
2026-05-04 09:56 53.42282 -6.26569 230 ft 26 kts 275°
2026-05-04 09:56 53.42299 -6.26880 230 ft 28 kts 275°
2026-05-04 09:56 53.42317 -6.27209 230 ft 29 kts 275°
2026-05-04 09:57 53.42336 -6.27548 230 ft 28 kts 275°
2026-05-04 09:57 53.42352 -6.27852 232 ft 26 kts 275°
2026-05-04 09:57 53.42369 -6.28158 231 ft 26 kts 275°
2026-05-04 09:57 53.42384 -6.28438 231 ft 25 kts 275°
2026-05-04 09:58 53.42400 -6.28725 231 ft 21 kts 275°
2026-05-04 09:58 53.42410 -6.28944 231 ft 19 kts 264°
2026-05-04 09:58 53.42332 -6.29074 232 ft 17 kts 183°
2026-05-04 10:00 53.41858 -6.21676 1539 ft 153 kts 90°
2026-05-04 10:00 53.41765 -6.19849 1991 ft 164 kts 92°
2026-05-04 10:02 53.40921 -6.01514 6791 ft 269 kts 82°
2026-05-04 10:04 53.42643 -5.78913 9245 ft 281 kts 82°
2026-05-04 10:04 53.42864 -5.75628 10110 ft 287 kts 83°
2026-05-04 10:04 53.43090 -5.72221 10735 ft 304 kts 83°
2026-05-04 10:04 53.43329 -5.68601 11130 ft 328 kts 83°
2026-05-04 10:05 53.43585 -5.64716 11787 ft 340 kts 83°
2026-05-04 10:05 53.43851 -5.60745 12669 ft 344 kts 83°
2026-05-04 10:05 53.44119 -5.56727 13591 ft 348 kts 83°
2026-05-04 10:05 53.44384 -5.52669 14464 ft 351 kts 83°
2026-05-04 10:06 53.44533 -5.48559 15247 ft 357 kts 89°
2026-05-04 10:06 53.44452 -5.44301 15664 ft 374 kts 91°
2026-05-04 10:06 53.44332 -5.39849 15969 ft 389 kts 91°
2026-05-04 10:08 53.43581 -5.11940 19750 ft 405 kts 91°
2026-05-04 10:08 53.43431 -5.07195 20273 ft 409 kts 92°
2026-05-04 10:08 53.43276 -5.02416 20844 ft 411 kts 92°
2026-05-04 10:08 53.43122 -4.97621 21418 ft 414 kts 92°
2026-05-04 10:09 53.42966 -4.92783 21988 ft 416 kts 91°
2026-05-04 10:09 53.42807 -4.87925 22567 ft 419 kts 91°
2026-05-04 10:09 53.42644 -4.83028 23143 ft 422 kts 91°
2026-05-04 10:09 53.42481 -4.78105 23733 ft 424 kts 91°
2026-05-04 10:10 53.42314 -4.73158 24231 ft 427 kts 91°
2026-05-04 10:10 53.42146 -4.68177 24735 ft 429 kts 91°
2026-05-04 10:10 53.41976 -4.63170 25238 ft 431 kts 91°
2026-05-04 10:10 53.41801 -4.58200 25735 ft 433 kts 91°
2026-05-04 10:11 53.41622 -4.53156 26229 ft 435 kts 91°
2026-05-04 10:11 53.41440 -4.48085 26698 ft 437 kts 91°
2026-05-04 10:11 53.41256 -4.42974 27161 ft 439 kts 91°
2026-05-04 10:11 53.41067 -4.37850 27644 ft 440 kts 91°
2026-05-04 10:12 53.40877 -4.32745 28267 ft 437 kts 91°
2026-05-04 10:12 53.40694 -4.27661 28866 ft 435 kts 91°
2026-05-04 10:12 53.40505 -4.22618 29470 ft 433 kts 91°
2026-05-04 10:12 53.40310 -4.17599 30070 ft 430 kts 91°
2026-05-04 10:13 53.40120 -4.12667 30576 ft 428 kts 91°
2026-05-04 10:13 53.39926 -4.07687 31045 ft 427 kts 91°
2026-05-04 10:13 53.39731 -4.02722 31496 ft 426 kts 91°
2026-05-04 10:13 53.39573 -3.97780 31961 ft 423 kts 88°
2026-05-04 10:14 53.39713 -3.92872 32399 ft 421 kts 84°
2026-05-04 10:14 53.39954 -3.87990 32800 ft 420 kts 83°
2026-05-04 10:16 53.41115 -3.55435 34829 ft 426 kts 92°
2026-05-04 10:16 53.40892 -3.50486 35029 ft 428 kts 93°
2026-05-04 10:16 53.40662 -3.45507 35227 ft 429 kts 93°
2026-05-04 10:16 53.40436 -3.40503 35433 ft 431 kts 93°
2026-05-04 10:17 53.40210 -3.35473 35640 ft 433 kts 93°
2026-05-04 10:17 53.39981 -3.30447 35832 ft 434 kts 93°
2026-05-04 10:19 53.38483 -2.94831 37118 ft 443 kts 93°
2026-05-04 10:19 53.38288 -2.89676 37120 ft 443 kts 93°
2026-05-04 10:19 53.37900 -2.79391 37093 ft 442 kts 93°
2026-05-04 10:20 53.37497 -2.69104 37083 ft 443 kts 94°
2026-05-04 10:20 53.37082 -2.58873 37081 ft 443 kts 94°
2026-05-04 10:21 53.36656 -2.48565 37081 ft 444 kts 94°
2026-05-04 10:21 53.36216 -2.38237 37085 ft 444 kts 94°
2026-05-04 10:22 53.35352 -2.22776 37085 ft 445 kts 99°
2026-05-04 10:23 53.34309 -2.12550 37080 ft 446 kts 100°
2026-05-04 10:25 53.30032 -1.71658 37077 ft 448 kts 101°
2026-05-04 10:25 53.28937 -1.61392 37082 ft 449 kts 101°
2026-05-04 10:26 53.27832 -1.51125 37082 ft 449 kts 101°
2026-05-04 10:26 53.26707 -1.40857 37081 ft 450 kts 101°
2026-05-04 10:27 53.25576 -1.30571 37073 ft 450 kts 101°
2026-05-04 10:27 53.24445 -1.20287 37074 ft 450 kts 101°
2026-05-04 10:28 53.23307 -1.10001 37075 ft 451 kts 102°
2026-05-04 10:28 53.22156 -0.99710 37065 ft 451 kts 102°
2026-05-04 10:29 53.20994 -0.89413 37061 ft 451 kts 102°
2026-05-04 10:29 53.19818 -0.79190 37058 ft 452 kts 102°
2026-05-04 10:30 53.18633 -0.68896 37053 ft 452 kts 102°
2026-05-04 10:30 53.17444 -0.58590 37052 ft 452 kts 102°
2026-05-04 10:31 53.16240 -0.48303 37057 ft 452 kts 103°
2026-05-04 10:32 53.11971 -0.12282 37048 ft 453 kts 103°
2026-05-04 10:33 53.10726 -0.01989 37056 ft 454 kts 103°
2026-05-04 10:33 53.09472 0.08310 37055 ft 454 kts 103°
2026-05-04 10:34 53.08209 0.18599 37055 ft 454 kts 104°
2026-05-04 10:34 53.06933 0.28894 37049 ft 454 kts 104°
2026-05-04 10:35 53.05651 0.39178 37042 ft 454 kts 104°
2026-05-04 10:35 53.04355 0.49476 37041 ft 454 kts 104°
2026-05-04 10:36 53.03061 0.59684 37056 ft 455 kts 104°
2026-05-04 10:36 53.01752 0.69966 37043 ft 455 kts 104°
2026-05-04 10:37 53.00427 0.80234 37053 ft 455 kts 104°
2026-05-04 10:37 52.99102 0.90503 37047 ft 455 kts 105°
2026-05-04 10:39 52.92191 1.25148 37048 ft 452 kts 114°
2026-05-04 10:40 52.89970 1.34892 37047 ft 452 kts 114°
2026-05-04 10:40 52.87754 1.44581 37042 ft 452 kts 114°
2026-05-04 10:41 52.85522 1.54297 37042 ft 452 kts 114°
2026-05-04 10:41 52.83273 1.64006 37043 ft 452 kts 114°
2026-05-04 10:42 52.81027 1.73707 37039 ft 452 kts 115°
2026-05-04 10:42 52.78771 1.83395 37033 ft 452 kts 115°
2026-05-04 10:43 52.76504 1.93068 37029 ft 451 kts 115°
2026-05-04 10:45 52.67369 2.31630 37021 ft 450 kts 116°
2026-05-04 10:45 52.65087 2.41172 37022 ft 450 kts 116°
2026-05-04 10:46 52.62787 2.50754 37022 ft 450 kts 116°
2026-05-04 10:46 52.60477 2.60326 37021 ft 449 kts 116°
2026-05-04 10:47 52.58163 2.69869 37017 ft 449 kts 116°
2026-05-04 10:47 52.55842 2.79387 37018 ft 449 kts 117°
2026-05-04 10:49 52.44286 3.15125 37010 ft 443 kts 124°
2026-05-04 10:50 52.41299 3.23971 37011 ft 443 kts 124°
2026-05-04 10:52 52.29316 3.59133 37005 ft 442 kts 125°
2026-05-04 10:52 52.26319 3.67818 37002 ft 441 kts 125°
2026-05-04 10:54 52.14241 4.02661 36998 ft 441 kts 126°
2026-05-04 10:56 52.02075 4.37254 36987 ft 440 kts 126°
2026-05-04 10:57 51.99022 4.45857 36986 ft 440 kts 126°
2026-05-04 10:57 51.95960 4.54466 36982 ft 440 kts 126°
2026-05-04 10:58 51.92887 4.63074 36981 ft 441 kts 126°
2026-05-04 10:58 51.89832 4.71594 36984 ft 441 kts 126°
2026-05-04 10:59 51.86749 4.80170 36982 ft 441 kts 127°
2026-05-04 10:59 51.83654 4.88747 36979 ft 441 kts 127°
2026-05-04 11:00 51.80552 4.97314 36978 ft 441 kts 127°
2026-05-04 11:02 51.68601 5.30059 36981 ft 442 kts 127°
2026-05-04 11:05 51.44960 5.93604 36981 ft 442 kts 127°
2026-05-04 11:06 51.41774 6.02055 36985 ft 442 kts 127°
2026-05-04 11:06 51.38579 6.10498 36980 ft 443 kts 127°
2026-05-04 11:10 51.16685 6.67584 36990 ft 444 kts 127°
2026-05-04 11:12 51.03789 7.00664 36985 ft 445 kts 127°
2026-05-04 11:12 51.00506 7.09009 36988 ft 445 kts 127°
2026-05-04 11:13 50.97220 7.17325 36993 ft 445 kts 127°
2026-05-04 11:13 50.93923 7.25640 36993 ft 445 kts 127°
2026-05-04 11:14 50.93367 7.27042 36990 ft 445 kts 127°
2026-05-04 11:16 50.77406 7.66986 36990 ft 445 kts 127°
2026-05-04 11:16 50.74071 7.75248 37005 ft 445 kts 127°
2026-05-04 11:17 50.70742 7.83479 37015 ft 445 kts 127°
2026-05-04 11:19 50.58358 8.11212 37016 ft 434 kts 148°
2026-05-04 11:19 50.55868 8.13861 37029 ft 431 kts 152°
2026-05-04 11:19 50.50768 8.18875 36999 ft 431 kts 152°
2026-05-04 11:20 50.45689 8.23931 36989 ft 432 kts 152°
2026-05-04 11:20 50.40619 8.28999 36992 ft 432 kts 152°
2026-05-04 11:22 50.24425 8.48296 37020 ft 442 kts 136°
2026-05-04 11:22 50.22359 8.51853 37001 ft 442 kts 136°
2026-05-04 11:23 50.18197 8.58926 36995 ft 443 kts 137°
2026-05-04 11:25 50.03363 8.83299 36994 ft 441 kts 142°
2026-05-04 11:25 49.98816 8.89718 36996 ft 441 kts 142°
2026-05-04 11:27 49.78307 9.18524 37017 ft 443 kts 142°
2026-05-04 11:28 49.73761 9.24866 37006 ft 443 kts 142°
2026-05-04 11:28 49.69172 9.31246 37004 ft 443 kts 142°
2026-05-04 11:29 49.64639 9.37539 37007 ft 443 kts 142°
2026-05-04 11:29 49.60185 9.44278 37009 ft 446 kts 136°
2026-05-04 11:31 49.45868 9.69400 35222 ft 443 kts 136°
2026-05-04 11:33 49.31443 9.94376 30334 ft 450 kts 136°
2026-05-04 11:33 49.29357 9.97976 29494 ft 452 kts 135°
2026-05-04 11:33 49.27266 10.01575 28643 ft 452 kts 135°
2026-05-04 11:34 49.25162 10.05185 27955 ft 454 kts 135°
2026-05-04 11:34 49.23071 10.08772 27319 ft 451 kts 135°
2026-05-04 11:34 49.20984 10.12338 26651 ft 448 kts 135°
2026-05-04 11:34 49.18916 10.15871 25987 ft 445 kts 135°
2026-05-04 11:35 49.16857 10.19390 25346 ft 442 kts 135°
2026-05-04 11:35 49.14839 10.22837 24709 ft 440 kts 135°
2026-05-04 11:35 49.12738 10.26293 24049 ft 437 kts 136°
2026-05-04 11:35 49.10675 10.29624 23378 ft 436 kts 136°
2026-05-04 11:36 49.08586 10.32982 22641 ft 434 kts 136°
2026-05-04 11:36 49.06507 10.36321 21929 ft 432 kts 136°
2026-05-04 11:36 49.04447 10.39633 21238 ft 430 kts 136°
2026-05-04 11:36 49.02388 10.42937 20570 ft 427 kts 136°
2026-05-04 11:37 49.00358 10.46190 19944 ft 419 kts 136°
2026-05-04 11:37 48.98366 10.49372 19341 ft 412 kts 136°
2026-05-04 11:37 48.96423 10.52467 18777 ft 406 kts 136°
2026-05-04 11:37 48.94485 10.55541 18218 ft 399 kts 136°
2026-05-04 11:38 48.92579 10.58573 17607 ft 393 kts 136°
2026-05-04 11:38 48.90704 10.61554 16993 ft 387 kts 136°
2026-05-04 11:38 48.88858 10.64491 16431 ft 381 kts 136°
2026-05-04 11:38 48.87027 10.67396 15880 ft 380 kts 136°
2026-05-04 11:39 48.85197 10.70296 15370 ft 380 kts 136°
2026-05-04 11:39 48.83368 10.73194 14843 ft 380 kts 136°
2026-05-04 11:40 48.72575 10.90153 11518 ft 358 kts 137°
2026-05-04 11:41 48.70865 10.92833 11185 ft 348 kts 137°
2026-05-04 11:41 48.69208 10.95419 10961 ft 336 kts 137°
2026-05-04 11:41 48.67607 10.97906 10826 ft 324 kts 137°
2026-05-04 11:41 48.66056 11.00322 10659 ft 315 kts 137°
2026-05-04 11:42 48.64560 11.02651 10514 ft 303 kts 137°
2026-05-04 11:42 48.63120 11.04890 10416 ft 292 kts 137°
2026-05-04 11:42 48.61729 11.07048 10342 ft 283 kts 137°
2026-05-04 11:42 48.60349 11.09185 10191 ft 279 kts 137°
2026-05-04 11:43 48.59021 11.11244 9922 ft 276 kts 137°
2026-05-04 11:43 48.57639 11.13223 9626 ft 272 kts 145°
2026-05-04 11:43 48.56099 11.14862 9324 ft 270 kts 149°
2026-05-04 11:43 48.54544 11.16432 9000 ft 268 kts 149°
2026-05-04 11:44 48.53001 11.17987 8671 ft 266 kts 148°
2026-05-04 11:44 48.51480 11.19559 8361 ft 265 kts 144°
2026-05-04 11:44 48.50104 11.21414 8048 ft 264 kts 137°
2026-05-04 11:44 48.48792 11.23361 7726 ft 265 kts 137°
2026-05-04 11:45 48.47481 11.25312 7386 ft 266 kts 136°
2026-05-04 11:45 48.46164 11.27265 7054 ft 263 kts 137°
2026-05-04 11:45 48.44870 11.29176 6867 ft 258 kts 137°
2026-05-04 11:45 48.43595 11.31053 6700 ft 255 kts 137°
2026-05-04 11:46 48.42523 11.32628 6514 ft 252 kts 136°
2026-05-04 11:46 48.41236 11.34526 6281 ft 249 kts 136°
2026-05-04 11:46 48.40001 11.36357 6033 ft 248 kts 136°
2026-05-04 11:46 48.39189 11.37562 5851 ft 246 kts 135°
2026-05-04 11:47 48.37989 11.39338 5677 ft 239 kts 135°
2026-05-04 11:47 48.36804 11.41083 5433 ft 238 kts 135°
2026-05-04 11:47 48.35624 11.42822 5180 ft 236 kts 135°
2026-05-04 11:47 48.34070 11.45099 4951 ft 234 kts 134°
2026-05-04 11:48 48.32921 11.46818 4885 ft 231 kts 130°
2026-05-04 11:48 48.32319 11.48150 4839 ft 224 kts 111°
2026-05-04 11:48 48.32041 11.50351 4740 ft 217 kts 90°
2026-05-04 11:48 48.32156 11.52581 4472 ft 210 kts 82°
2026-05-04 11:49 48.32389 11.54729 4291 ft 207 kts 80°
2026-05-04 11:49 48.32607 11.56847 3981 ft 206 kts 81°
2026-05-04 11:49 48.32805 11.58944 3728 ft 198 kts 82°
2026-05-04 11:49 48.32971 11.60993 3379 ft 195 kts 82°
2026-05-04 11:50 48.33124 11.62972 3148 ft 181 kts 83°
2026-05-04 11:50 48.33265 11.64790 2902 ft 170 kts 83°
2026-05-04 11:50 48.33394 11.66518 2729 ft 162 kts 83°
2026-05-04 11:50 48.33543 11.68175 2424 ft 156 kts 83°
2026-05-04 11:51 48.33652 11.69729 2255 ft 146 kts 82°
2026-05-04 11:51 48.33768 11.71242 2117 ft 145 kts 82°
2026-05-04 11:51 48.33890 11.72752 1901 ft 146 kts 81°
2026-05-04 11:51 48.34003 11.74263 1635 ft 145 kts 82°
2026-05-04 11:52 48.34119 11.75742 1478 ft 133 kts 81°
2026-05-04 11:52 48.34212 11.76961 1475 ft 103 kts 84°
2026-05-04 11:52 48.34279 11.77869 1466 ft 66 kts 82°
2026-05-04 11:52 48.34307 11.78107 1466 ft 12 kts 72°
2026-05-04 11:53 48.34342 11.78233 1470 ft 14 kts 63°
2026-05-04 11:53 48.34398 11.78375 1477 ft 17 kts 57°
2026-05-04 11:53 48.34472 11.78527 1470 ft 19 kts 53°
2026-05-04 11:53 48.34548 11.78686 1465 ft 18 kts 48°
2026-05-04 11:55 48.34862 11.78059 1470 ft 12 kts 50°
2026-05-04 11:55 48.34881 11.78195 1472 ft 15 kts 73°
2026-05-04 11:56 48.34904 11.78296 1468 ft 11 kts 84°
2026-05-04 11:56 48.34910 11.78388 1472 ft 7 kts 83°
2026-05-04 11:56 48.34910 11.78393 1472 ft 0 kts 83°